User: anonymous   Login
Location: Roanoke
(37.2710°N, 79.9420°W)
Time: 18:45:19
(UTC-05:00)
Language:

Cosmos 1441 Rocket - Orbit

View from above orbital plane
View from above orbital plane
View from above satellite
View from above satellite

Ground track
Ground track

The orbit data is extracted from the following two-line orbital elements,

1 13819U 83010B   14353.43066631  .00008018  00000-0  45917-3 0   266
2 13819 081.1164 141.0399 0036047 129.1450 231.2990 15.11937926735920
Epoch (UTC): 19 December 2014 10:20:09
Eccentricity: 0.0036047
inclination: 81.1164°
perigee height: 505 km
apogee height: 555 km
right ascension of ascending node: 141.0399°
argument of perigee: 129.1450°
revolutions per day: 15.11937926
mean anomaly at epoch: 231.2990°
orbit number at epoch: 73592

The dashed part of the orbit path shows where the satellite is in the earth's shadow,  

DLR